Find Starlink 1962

NORAD ID: 47563 Int'l Des: 2021-009 Owner: SPXS Country: US Constellation: starlink operational
LEOCIRCULAR

リアルタイム位置

3D地球を読み込み中...

Starlink 1962について

説明を読み込み中...

次回通過

Passes for default location (London). Set your location on the main map for personalized predictions.

高度履歴

Loading altitude history...

軌道要素

1 47563U 21009R 26120.11574205 .00132411 00000-0 94380-3 0 9992
2 47563 53.0388 103.0837 0002020 28.3011 331.8116 15.72926349289218
Epoch: Apr 30, 2026 • Age: 7 hours

現在のステータス

高度 353.8 km
速度 7.70 km/s
衛星直下点 -7.55°S, 76.19°W
打ち上げ日 Feb 4, 2021
運用期間 5.2 years
タイプ internet

技術仕様

分類 Payload
質量 260.00 kg
乾燥質量 248.00 kg
総質量 260.00 kg
長さ 0.20 m
直径 2.80 m
スパン 9.00 m
形状 Box + pan
製造者 SPXS
バスタイプ Starlink
フェーズステータス In Orbit
所有者/国 SPXS/US

Most Searched